| time (UTC) | temp C | wind direction | speed KPH | gust KPH | rain 1hr cm | rain 24hr cm | rain mn cm | humidity % | barometer mb |
| 20260504021536 | 25 | 278 | 3.2 | 11.3 | 0.00 | 0.00 | 0.00 | 56 | 1015.6 |
| 20260504021034 | 25 | 234 | 3.2 | 11.3 | 0.00 | 0.00 | 0.00 | 58 | 1015.7 |
| 20260504020532 | 25 | 288 | 4.8 | 8.0 | 0.00 | 0.00 | 0.00 | 57 | 1015.8 |
| 20260504020031 | 24 | 301 | 3.2 | 8.0 | 0.00 | 0.00 | 0.00 | 60 | 1015.9 |
| 20260504015530 | 24 | 286 | 1.6 | 8.0 | 0.00 | 0.00 | 0.00 | 59 | 1016.1 |
| 20260504015033 | 24 | 288 | 3.2 | 8.0 | 0.00 | 0.00 | 0.00 | 58 | 1016.1 |
| 20260504014528 | 24 | 330 | 1.6 | 8.0 | 0.00 | 0.00 | 0.00 | 59 | 1016.2 |
| 20260504014030 | 24 | 299 | 3.2 | 12.9 | 0.00 | 0.00 | 0.00 | 60 | 1016.3 |
| 20260504013527 | 23 | 282 | 4.8 | 12.9 | 0.00 | 0.00 | 0.00 | 59 | 1016.4 |
| 20260504013035 | 24 | 279 | 3.2 | 9.7 | 0.00 | 0.00 | 0.00 | 59 | 1016.4 |
| 20260504012526 | 24 | 291 | 0.0 | 6.4 | 0.00 | 0.00 | 0.00 | 61 | 1016.4 |
| 20260504012025 | 24 | 273 | 3.2 | 6.4 | 0.00 | 0.00 | 0.00 | 60 | 1016.5 |
| 20260504011525 | 23 | 290 | 0.0 | 6.4 | 0.00 | 0.00 | 0.00 | 61 | 1016.5 |
| 20260504011025 | 23 | 263 | 1.6 | 12.9 | 0.00 | 0.00 | 0.00 | 61 | 1016.5 |
| 20260504010522 | 23 | 271 | 4.8 | 12.9 | 0.00 | 0.00 | 0.00 | 60 | 1016.6 |
| 20260504010021 | 23 | 322 | 3.2 | 12.9 | 0.00 | 0.00 | 0.00 | 60 | 1016.5 |
| 20260504005519 | 23 | 292 | 3.2 | 14.5 | 0.00 | 0.00 | 0.00 | 61 | 1016.5 |
| 20260504005020 | 23 | 273 | 6.4 | 14.5 | 0.00 | 0.00 | 0.00 | 61 | 1016.6 |
| 20260504004519 | 23 | 256 | 3.2 | 11.3 | 0.00 | 0.00 | 0.00 | 62 | 1016.5 |
| 20260504004017 | 23 | 62 | 3.2 | 11.3 | 0.00 | 0.00 | 0.00 | 65 | 1016.6 |
| 20260504003514 | 22 | 316 | 4.8 | 12.9 | 0.00 | 0.00 | 0.00 | 66 | 1016.7 |
| 20260504003026 | 22 | 238 | 6.4 | 16.1 | 0.00 | 0.00 | 0.00 | 67 | 1016.7 |
| 20260504002512 | 22 | 302 | 4.8 | 16.1 | 0.00 | 0.00 | 0.00 | 66 | 1016.8 |
| 20260504002011 | 22 | 324 | 3.2 | 9.7 | 0.00 | 0.00 | 0.00 | 68 | 1016.8 |
| 20260504001509 | 22 | 274 | 1.6 | 12.9 | 0.00 | 0.00 | 0.00 | 69 | 1016.8 |
| 20260504001009 | 22 | 325 | 6.4 | 12.9 | 0.00 | 0.00 | 0.00 | 69 | 1016.8 |
| 20260504000507 | 22 | 290 | 1.6 | 8.0 | 0.00 | 0.00 | 0.00 | 70 | 1016.8 |
| 20260504000006 | 21 | 268 | 3.2 | 12.9 | 0.00 | 0.00 | 0.00 | 71 | 1016.8 |
| 20260503235504 | 21 | 250 | 4.8 | 12.9 | 0.00 | 0.00 | 0.00 | 71 | 1016.8 |
| 20260503235003 | 21 | 300 | 4.8 | 12.9 | 0.00 | 0.00 | 0.00 | 72 | 1016.8 |
| 20260503234502 | 21 | 284 | 3.2 | 12.9 | 0.00 | 0.00 | 0.00 | 74 | 1016.9 |
| 20260503234101 | 21 | 13 | 6.4 | 12.9 | 0.00 | 0.00 | 0.00 | 74 | 1016.9 |
| 20260503233600 | 20 | 284 | 4.8 | 12.9 | 0.00 | 0.00 | 0.00 | 75 | 1017.0 |
| 20260503233100 | 20 | 299 | 6.4 | 11.3 | 0.00 | 0.00 | 0.00 | 76 | 1017.0 |
| 20260503232558 | 20 | 266 | 4.8 | 14.5 | 0.00 | 0.00 | 0.00 | 76 | 1017.0 |
| 20260503232058 | 20 | 277 | 4.8 | 14.5 | 0.00 | 0.00 | 0.00 | 76 | 1017.0 |
| 20260503231556 | 20 | 296 | 4.8 | 9.7 | 0.00 | 0.00 | 0.00 | 78 | 1017.0 |
| 20260503231055 | 20 | 296 | 4.8 | 11.3 | 0.00 | 0.00 | 0.00 | 78 | 1017.0 |
| 20260503230553 | 20 | 268 | 4.8 | 14.5 | 0.00 | 0.00 | 0.00 | 79 | 1016.9 |
| 20260503230055 | 19 | 286 | 3.2 | 14.5 | 0.00 | 0.00 | 0.00 | 80 | 1016.9 |
| 20260503225551 | 19 | 291 | 4.8 | 14.5 | 0.00 | 0.00 | 0.00 | 81 | 1016.9 |
| 20260503225051 | 19 | 311 | 9.7 | 14.5 | 0.00 | 0.00 | 0.00 | 81 | 1016.9 |
| 20260503224552 | 19 | 278 | 6.4 | 12.9 | 0.00 | 0.00 | 0.00 | 81 | 1016.9 |
| 20260503224049 | 18 | 301 | 6.4 | 12.9 | 0.00 | 0.00 | 0.00 | 82 | 1016.9 |
| 20260503223548 | 18 | 340 | 6.4 | 14.5 | 0.00 | 0.00 | 0.00 | 83 | 1016.9 |
| 20260503223048 | 18 | 300 | 4.8 | 14.5 | 0.00 | 0.00 | 0.00 | 84 | 1016.9 |
| 20260503222548 | 18 | 309 | 4.8 | 12.9 | 0.00 | 0.00 | 0.00 | 85 | 1016.9 |
| 20260503222047 | 18 | 282 | 1.6 | 12.9 | 0.00 | 0.00 | 0.00 | 86 | 1016.9 |
| 20260503221547 | 17 | 328 | 3.2 | 12.9 | 0.00 | 0.00 | 0.00 | 87 | 1016.9 |
| 20260503221047 | 17 | 303 | 3.2 | 14.5 | 0.00 | 0.00 | 0.00 | 88 | 1016.9 |
| 20260503220548 | 17 | 290 | 3.2 | 9.7 | 0.00 | 0.00 | 0.00 | 89 | 1016.9 |
| 20260503220048 | 17 | 299 | 3.2 | 9.7 | 0.00 | 0.00 | 0.00 | 89 | 1016.8 |
| 20260503215547 | 17 | 300 | 3.2 | 8.0 | 0.00 | 0.00 | 0.00 | 90 | 1016.9 |
| 20260503215046 | 16 | 284 | 3.2 | 8.0 | 0.00 | 0.00 | 0.00 | 90 | 1016.9 |
| 20260503214546 | 16 | 334 | 3.2 | 6.4 | 0.00 | 0.00 | 0.00 | 91 | 1016.8 |
| 20260503214046 | 16 | 304 | 1.6 | 6.4 | 0.00 | 0.00 | 0.00 | 91 | 1016.8 |
| 20260503213546 | 16 | 5 | 3.2 | 8.0 | 0.00 | 0.00 | 0.00 | 92 | 1016.7 |
| 20260503213047 | 16 | 331 | 3.2 | 8.0 | 0.00 | 0.00 | 0.00 | 92 | 1016.6 |
| 20260503212545 | 16 | 327 | 0.0 | 1.6 | 0.00 | 0.00 | 0.00 | 91 | 1016.6 |
| 20260503212043 | 16 | 327 | 0.0 | 1.6 | 0.00 | 0.00 | 0.00 | 91 | 1016.5 |
| 20260503211543 | 16 | 39 | 0.0 | 4.8 | 0.00 | 0.00 | 0.00 | 90 | 1016.5 |
| 20260503211042 | 16 | 39 | 0.0 | 4.8 | 0.00 | 0.00 | 0.00 | 90 | 1016.5 |
| 20260503210541 | 16 | 317 | 0.0 | 3.2 | 0.00 | 0.00 | 0.00 | 90 | 1016.3 |
| 20260503210039 | 16 | 317 | 0.0 | 3.2 | 0.00 | 0.00 | 0.00 | 90 | 1016.2 |
| 20260503205538 | 16 | 317 | 0.0 | 4.8 | 0.00 | 0.00 | 0.00 | 90 | 1016.2 |
| 20260503205040 | 16 | 317 | 1.6 | 6.4 | 0.00 | 0.00 | 0.00 | 90 | 1016.2 |
| 20260503204535 | 16 | 337 | 0.0 | 6.4 | 0.00 | 0.00 | 0.00 | 89 | 1016.1 |
| 20260503204033 | 16 | 338 | 0.0 | 4.8 | 0.00 | 0.00 | 0.00 | 89 | 1016.0 |
| 20260503203534 | 16 | 282 | 1.6 | 4.8 | 0.00 | 0.00 | 0.00 | 89 | 1016.0 |
| 20260503203036 | 16 | 311 | 0.0 | 6.4 | 0.00 | 0.00 | 0.00 | 89 | 1015.9 |
| 20260503202532 | 16 | 355 | 0.0 | 6.4 | 0.00 | 0.00 | 0.00 | 89 | 1015.7 |
| 20260503202034 | 16 | 333 | 1.6 | 8.0 | 0.00 | 0.00 | 0.00 | 89 | 1015.7 |
| 20260503201529 | 16 | 319 | 1.6 | 8.0 | 0.00 | 0.00 | 0.00 | 89 | 1015.7 |
| 20260503201029 | 16 | 305 | 0.0 | 8.0 | 0.00 | 0.00 | 0.00 | 89 | 1015.6 |
| 20260503200531 | 16 | 297 | 1.6 | 8.0 | 0.00 | 0.00 | 0.00 | 89 | 1015.6 |
| 20260503200028 | 16 | 331 | 1.6 | 8.0 | 0.00 | 0.00 | 0.00 | 88 | 1015.6 |
| 20260503195527 | 16 | 325 | 3.2 | 8.0 | 0.00 | 0.00 | 0.00 | 88 | 1015.6 |
| 20260503195026 | 16 | 328 | 1.6 | 6.4 | 0.00 | 0.00 | 0.00 | 88 | 1015.6 |
| 20260503194527 | 17 | 355 | 0.0 | 6.4 | 0.00 | 0.00 | 0.00 | 88 | 1015.5 |
| 20260503194026 | 17 | 348 | 1.6 | 6.4 | 0.00 | 0.00 | 0.00 | 88 | 1015.4 |
| 20260503193527 | 17 | 316 | 1.6 | 6.4 | 0.00 | 0.00 | 0.00 | 88 | 1015.3 |
| 20260503193025 | 17 | 355 | 1.6 | 6.4 | 0.00 | 0.00 | 0.00 | 88 | 1015.2 |
| 20260503192524 | 17 | 321 | 1.6 | 6.4 | 0.00 | 0.00 | 0.00 | 88 | 1015.2 |
| 20260503192029 | 17 | 330 | 1.6 | 6.4 | 0.00 | 0.00 | 0.00 | 88 | 1015.1 |
| 20260503191524 | 17 | 326 | 1.6 | 6.4 | 0.00 | 0.00 | 0.00 | 88 | 1015.1 |
| 20260503191024 | 17 | 321 | 3.2 | 6.4 | 0.00 | 0.00 | 0.00 | 88 | 1015.1 |
| 20260503190524 | 17 | 346 | 3.2 | 8.0 | 0.00 | 0.00 | 0.00 | 88 | 1015.1 |
| 20260503190025 | 17 | 313 | 3.2 | 11.3 | 0.00 | 0.00 | 0.00 | 87 | 1015.2 |
| 20260503185524 | 17 | 293 | 3.2 | 11.3 | 0.00 | 0.00 | 0.00 | 88 | 1015.2 |
| 20260503185022 | 17 | 324 | 3.2 | 9.7 | 0.00 | 0.00 | 0.00 | 87 | 1015.1 |
| 20260503184522 | 17 | 324 | 3.2 | 9.7 | 0.00 | 0.00 | 0.00 | 87 | 1015.2 |
| 20260503184021 | 17 | 333 | 3.2 | 8.0 | 0.00 | 0.00 | 0.00 | 87 | 1015.3 |
| 20260503183521 | 17 | 284 | 3.2 | 8.0 | 0.00 | 0.00 | 0.00 | 86 | 1015.3 |
| 20260503183024 | 17 | 309 | 3.2 | 9.7 | 0.00 | 0.00 | 0.00 | 86 | 1015.2 |
| 20260503182520 | 17 | 299 | 3.2 | 12.9 | 0.00 | 0.00 | 0.00 | 86 | 1015.2 |
| 20260503182021 | 17 | 281 | 4.8 | 12.9 | 0.00 | 0.00 | 0.00 | 87 | 1015.1 |
| 20260503181520 | 17 | 277 | 4.8 | 9.7 | 0.00 | 0.00 | 0.00 | 87 | 1015.1 |
| 20260503181022 | 17 | 340 | 4.8 | 12.9 | 0.00 | 0.00 | 0.00 | 88 | 1015.2 |
| 20260503180519 | 17 | 297 | 3.2 | 11.3 | 0.00 | 0.00 | 0.00 | 88 | 1015.1 |
| 20260503180018 | 17 | 286 | 3.2 | 9.7 | 0.00 | 0.00 | 0.00 | 87 | 1015.1 |
| 20260503175517 | 17 | 275 | 3.2 | 9.7 | 0.00 | 0.00 | 0.00 | 87 | 1015.1 |
| 20260503175016 | 17 | 288 | 3.2 | 11.3 | 0.00 | 0.00 | 0.00 | 87 | 1015.2 |
| 20260503174519 | 17 | 317 | 4.8 | 12.9 | 0.00 | 0.00 | 0.00 | 87 | 1015.2 |
| 20260503174019 | 17 | 282 | 4.8 | 12.9 | 0.00 | 0.00 | 0.00 | 87 | 1015.2 |
| 20260503173515 | 17 | 332 | 4.8 | 12.9 | 0.00 | 0.00 | 0.00 | 87 | 1015.3 |
| 20260503173014 | 17 | 317 | 6.4 | 14.5 | 0.00 | 0.00 | 0.00 | 87 | 1015.3 |
| 20260503172517 | 17 | 311 | 6.4 | 14.5 | 0.00 | 0.00 | 0.00 | 87 | 1015.4 |
| 20260503172013 | 17 | 308 | 4.8 | 12.9 | 0.00 | 0.00 | 0.00 | 87 | 1015.5 |
| 20260503171511 | 17 | 342 | 4.8 | 9.7 | 0.00 | 0.00 | 0.00 | 87 | 1015.5 |
| 20260503171013 | 17 | 289 | 3.2 | 9.7 | 0.00 | 0.00 | 0.00 | 87 | 1015.6 |
| 20260503170512 | 17 | 323 | 4.8 | 8.0 | 0.00 | 0.00 | 0.00 | 87 | 1015.6 |
| 20260503150556 | 18 | 298 | 0.0 | 4.8 | 0.00 | 0.00 | 0.00 | 84 | 1016.4 |
| 20260503131044 | 18 | 289 | 3.2 | 8.0 | 0.00 | 0.00 | 0.00 | 83 | 1017.4 |
| 20260503130544 | 18 | 329 | 1.6 | 12.9 | 0.00 | 0.00 | 0.00 | 82 | 1017.5 |
| 20260503110541 | 19 | 5 | 1.6 | 9.7 | 0.00 | 0.00 | 0.00 | 80 | 1018.0 |
| 20260503081538 | 21 | 276 | 3.2 | 12.9 | 0.00 | 0.00 | 0.00 | 76 | 1017.6 |
| 20260503081034 | 21 | 110 | 1.6 | 12.9 | 0.00 | 0.00 | 0.00 | 76 | 1017.6 |
| 20260503080537 | 21 | 128 | 3.2 | 12.9 | 0.00 | 0.00 | 0.00 | 76 | 1017.6 |
| 20260503072533 | 21 | 18 | 1.6 | 9.7 | 0.00 | 0.00 | 0.00 | 76 | 1017.3 |
| 20260503072035 | 21 | 5 | 1.6 | 9.7 | 0.00 | 0.00 | 0.00 | 76 | 1017.3 |
| 20260503071552 | 21 | 360 | 1.6 | 16.1 | 0.00 | 0.00 | 0.00 | 76 | 1017.3 |
| 20260503071032 | 21 | 71 | 4.8 | 16.1 | 0.00 | 0.00 | 0.00 | 76 | 1017.3 |
| 20260503070532 | 22 | 138 | 1.6 | 12.9 | 0.00 | 0.00 | 0.00 | 75 | 1017.3 |
| 20260503055027 | 23 | 18 | 0.0 | 8.0 | 0.00 | 0.00 | 0.00 | 64 | 1017.5 |
| 20260503054529 | 23 | 275 | 1.6 | 8.0 | 0.00 | 0.00 | 0.00 | 66 | 1017.5 |
| 20260503054027 | 23 | 21 | 1.6 | 4.8 | 0.00 | 0.00 | 0.00 | 67 | 1017.5 |
| 20260503053528 | 24 | 163 | 0.0 | 14.5 | 0.00 | 0.00 | 0.00 | 67 | 1017.5 |
| 20260503053035 | 24 | 24 | 1.6 | 14.5 | 0.00 | 0.00 | 0.00 | 68 | 1017.6 |
| 20260503052526 | 24 | 188 | 1.6 | 9.7 | 0.00 | 0.00 | 0.00 | 67 | 1017.6 |
| 20260503052028 | 24 | 68 | 1.6 | 9.7 | 0.00 | 0.00 | 0.00 | 66 | 1017.6 |
| 20260503051529 | 24 | 23 | 1.6 | 6.4 | 0.00 | 0.00 | 0.00 | 66 | 1017.6 |
| 20260503051025 | 24 | 24 | 3.2 | 6.4 | 0.00 | 0.00 | 0.00 | 65 | 1017.8 |
| 20260503050524 | 25 | 55 | 1.6 | 4.8 | 0.00 | 0.00 | 0.00 | 64 | 1017.7 |
| 20260503050023 | 25 | 134 | 1.6 | 6.4 | 0.00 | 0.00 | 0.00 | 64 | 1017.7 |
| 20260503045523 | 25 | 294 | 3.2 | 6.4 | 0.00 | 0.00 | 0.00 | 62 | 1017.8 |
| 20260503045023 | 25 | 63 | 1.6 | 9.7 | 0.00 | 0.00 | 0.00 | 59 | 1017.8 |
| 20260503044541 | 26 | 331 | 1.6 | 9.7 | 0.00 | 0.00 | 0.00 | 55 | 1017.9 |
| 20260503044026 | 26 | 267 | 3.2 | 17.7 | 0.00 | 0.00 | 0.00 | 51 | 1017.9 |
| 20260503043521 | 26 | 309 | 6.4 | 17.7 | 0.00 | 0.00 | 0.00 | 50 | 1017.8 |
| 20260503043037 | 26 | 51 | 3.2 | 12.9 | 0.00 | 0.00 | 0.00 | 51 | 1017.8 |
| 20260503042520 | 26 | 254 | 3.2 | 14.5 | 0.00 | 0.00 | 0.00 | 51 | 1017.9 |
| 20260503042020 | 26 | 333 | 3.2 | 14.5 | 0.00 | 0.00 | 0.00 | 52 | 1018.0 |
| 20260503041520 | 26 | 263 | 1.6 | 11.3 | 0.00 | 0.00 | 0.00 | 53 | 1018.0 |
| 20260503041019 | 26 | 254 | 1.6 | 11.3 | 0.00 | 0.00 | 0.00 | 52 | 1018.1 |
| 20260503040519 | 26 | 172 | 1.6 | 11.3 | 0.00 | 0.00 | 0.00 | 50 | 1018.0 |
| 20260503040018 | 26 | 173 | 1.6 | 14.5 | 0.00 | 0.00 | 0.00 | 50 | 1018.0 |
| 20260503035517 | 26 | 163 | 6.4 | 14.5 | 0.00 | 0.00 | 0.00 | 50 | 1018.1 |
| 20260503035016 | 26 | 173 | 1.6 | 9.7 | 0.00 | 0.00 | 0.00 | 54 | 1018.1 |
| 20260503034515 | 26 | 261 | 0.0 | 12.9 | 0.00 | 0.00 | 0.00 | 51 | 1018.2 |
| 20260503034013 | 26 | 309 | 1.6 | 14.5 | 0.00 | 0.00 | 0.00 | 51 | 1018.2 |
| 20260503033517 | 26 | 70 | 3.2 | 17.7 | 0.00 | 0.00 | 0.00 | 51 | 1018.2 |
| 20260503033011 | 26 | 263 | 6.4 | 16.1 | 0.00 | 0.00 | 0.00 | 52 | 1018.4 |
| 20260503032510 | 26 | 306 | 1.6 | 19.3 | 0.00 | 0.00 | 0.00 | 51 | 1018.4 |
| 20260503032016 | 26 | 316 | 8.0 | 19.3 | 0.00 | 0.00 | 0.00 | 50 | 1018.5 |
| 20260503031509 | 26 | 288 | 4.8 | 14.5 | 0.00 | 0.00 | 0.00 | 51 | 1018.5 |
| 20260503031009 | 26 | 5 | 3.2 | 12.9 | 0.00 | 0.00 | 0.00 | 52 | 1018.6 |
| 20260503030507 | 26 | 306 | 3.2 | 12.9 | 0.00 | 0.00 | 0.00 | 52 | 1018.6 |
| 20260503030007 | 26 | 49 | 4.8 | 17.7 | 0.00 | 0.00 | 0.00 | 52 | 1018.7 |
| 20260503025506 | 25 | 270 | 4.8 | 17.7 | 0.00 | 0.00 | 0.00 | 52 | 1018.8 |
| 20260503025005 | 26 | 29 | 4.8 | 12.9 | 0.00 | 0.00 | 0.00 | 53 | 1018.9 |
| 20260503024504 | 26 | 321 | 1.6 | 14.5 | 0.00 | 0.00 | 0.00 | 53 | 1018.9 |
| 20260503024006 | 26 | 212 | 1.6 | 11.3 | 0.00 | 0.00 | 0.00 | 52 | 1019.1 |
| 20260503023503 | 25 | 49 | 3.2 | 16.1 | 0.00 | 0.00 | 0.00 | 53 | 1019.1 |
| 20260503023001 | 26 | 302 | 4.8 | 16.1 | 0.00 | 0.00 | 0.00 | 52 | 1019.2 |
| 20260503022559 | 25 | 257 | 3.2 | 12.9 | 0.00 | 0.00 | 0.00 | 53 | 1019.3 |
| 20260503022102 | 25 | 332 | 1.6 | 14.5 | 0.00 | 0.00 | 0.00 | 54 | 1019.4 |